Home   Weather   Kuching   Past weeks

Flag for Malaysia Past Weather in Kuching, Malaysia — Yesterday and Last 2 Weeks

Now
75 °F

Rain. Partly cloudy.


Feels Like: 74 °F
Forecast: 77 / 86 °F
Wind: 14 mph from West

Location: Kuching Airport

Current Time: May 26, 2017 at 8:55:45 pm

Latest Report: May 26, 2017 at 8:30 pm


Visibility: 2 mi

Pressure: 29.80 "Hg

Humidity: 94%

Dew Point: 73 °F

Location of KuchingLocation

Past Weather in Kuching — Graph

°F

Kuching Temperature Yesterday

Maximum temperature yesterday: 91 °F (at 2:00 pm)
Minimum temperature yesterday: 75 °F (at 5:00 am)
Average temperature yesterday: 80 °F

High & Low Weather Summary for the Past Weeks

 TemperatureHumidityPressure
High93 °F (May 15, 2:30 pm)100% (May 11, 11:30 pm)29.86 "Hg (May 11, 11:30 pm)
Low75 °F (May 12, 6:00 am)53% (May 18, 2:00 pm)29.68 "Hg (May 13, 4:30 pm)
Average81 °F86%29.78 "Hg
* Reported May 11 7:00 pm — May 26 7:30 pm, Kuching. Weather by CustomWeather, © 2017

Note: Actual official high and low records may vary slightly from our data, if they occured in-between our weather recording intervals... More about our weather records

Advertising

Kuching Weather History for the Previous 24 Hours

Scroll right to see more
 ConditionsComfort  
Time TempWeatherWind HumidityBarometerVisibility
7:30 pm
Fri, May 26
79 °FLight rain. Partly cloudy.1 mph94%29.74 "HgN/A
7:00 pm77 °FThunderstorms. Partly cloudy.1 mph94%29.74 "HgN/A
6:30 pm77 °FThunderstorms. Broken clouds.6 mph94%29.71 "HgN/A
6:00 pm79 °FThunderstorms. Broken clouds.7 mph94%29.71 "HgN/A
5:30 pm82 °FThunderstorms. Broken clouds.7 mph79%29.71 "HgN/A
5:00 pm84 °FThunderstorms. Broken clouds.12 mph74%29.68 "HgN/A
4:30 pm88 °FBroken clouds.9 mph70%29.68 "HgN/A
4:00 pm91 °FThunderstorms. Broken clouds.6 mph67%29.68 "HgN/A
3:00 pm93 °FBroken clouds.5 mph63%29.68 "HgN/A
2:30 pm91 °FBroken clouds.3 mph67%29.68 "HgN/A
2:00 pm93 °FBroken clouds.3 mph67%29.71 "HgN/A
1:30 pm91 °FBroken clouds.6 mph67%29.71 "HgN/A
1:00 pm91 °FBroken clouds.5 mph67%29.74 "HgN/A
12:30 pm90 °FBroken clouds.3 mph71%29.74 "HgN/A
12:00 pm90 °FBroken clouds.5 mph71%29.77 "HgN/A
11:30 am88 °FPartly sunny.3 mph75%29.77 "HgN/A
11:00 am86 °FPartly sunny.3 mph79%29.80 "HgN/A
10:30 am84 °FPartly sunny.2 mph84%29.80 "HgN/A
10:00 am82 °FPartly sunny.5 mph84%29.80 "HgN/A
9:30 am82 °FBroken clouds.5 mph84%29.80 "HgN/A
9:00 am81 °FBroken clouds.5 mph84%29.80 "HgN/A
8:30 am79 °FPartly sunny.3 mph89%29.80 "HgN/A
8:00 am77 °FPartly sunny.2 mph94%29.80 "HgN/A
7:30 am75 °FBroken clouds.2 mph94%29.80 "HgN/A
7:00 am75 °FPartly sunny.1 mph94%29.80 "HgN/A
6:30 am75 °FPartly sunny.3 mph94%29.80 "HgN/A
6:00 am75 °FPartly cloudy.2 mph94%29.80 "HgN/A
5:30 am75 °FPartly cloudy.No wind94%29.80 "HgN/A
5:00 am75 °FPartly cloudy.1 mph94%29.80 "HgN/A
4:30 am75 °FPartly cloudy.2 mph94%29.80 "HgN/A
4:00 am75 °FPartly cloudy.3 mph94%29.80 "HgN/A
3:30 am75 °FPartly cloudy.1 mph94%29.80 "HgN/A
3:00 am75 °FPartly cloudy.3 mph94%29.80 "HgN/A
2:30 am75 °FPartly cloudy.2 mph94%29.80 "HgN/A
2:00 am75 °FPartly cloudy.2 mph89%29.83 "HgN/A
1:30 am75 °FPartly cloudy.3 mph89%29.80 "HgN/A
1:00 am75 °FPartly cloudy.3 mph89%29.83 "HgN/A
12:30 am75 °FPartly cloudy.5 mph89%29.83 "HgN/A
12:00 am75 °FPartly cloudy.7 mph89%29.86 "HgN/A
11:30 pm
Thu, May 25
77 °FPartly cloudy.10 mph89%29.86 "HgN/A
11:00 pm79 °FPartly cloudy.10 mph89%29.83 "HgN/A
10:30 pm79 °FPartly cloudy.6 mph89%29.83 "HgN/A
10:00 pm77 °FPartly cloudy.1 mph100%29.80 "HgN/A
9:30 pm77 °FPartly cloudy.3 mph100%29.80 "HgN/A
9:00 pm77 °FPartly cloudy.2 mph94%29.80 "HgN/A
8:30 pm77 °FPartly cloudy.1 mph94%29.77 "HgN/A
8:00 pm79 °FPartly cloudy.1 mph94%29.77 "HgN/A
Weather by CustomWeather, © 2017

See weather overviewHow to use our weather pages